Other Public Products
Issued by NWS Grand Forks, ND

Home | Current Version | Previous Version | Graphics & Text | Print | Product List | Glossary On
Versions: 1 2 3 4 5 6 7 8 9 10 11 12 13 14 15 16 17 18 19 20 21 22 23 24 25 26 27 28 29 30 31 32 33 34 35 36 37 38 39 40 41 42 43 44 45 46 47 48 49 50
000
FPUS83 KFGF 030431
OPUFGF
PRAIRIE TO PINES WEATHER ROUNDUP
NATIONAL WEATHER SERVICE EASTERN NORTH DAKOTA/GRAND FORKS ND
1100 PM CDT SAT MAY 02 2015

 **SATELLITE DATA USED TO AUGMENT SKY COVER AT AUTOMATED STATIONS**
 *****  WEATHER ACROSS EASTERN NORTH DAKOTA  *****

CITY           SKY/WX    TMP DP  RH WIND       PRES   REMARKS
GRAND FORKS    PTCLDY    56  45  66 SW3       29.59R
GRAND FORKS AF CLEAR     56  45  67 CALM      29.59S
GRAND CITY NWS   N/A     57 N/A N/A SW2         N/A
BUXTON           N/A     60  48  64 CALM        N/A
DEVILS LAKE    CLEAR     59  36  41 N12       29.64S
FARGO          PTCLDY    66  49  54 SE17      29.60R
WAHPETON ARPT  MOCLDY    63  50  63 SE5       29.64F
$$

 *****  WEATHER ACROSS CENTRAL AND WESTERN NORTH DAKOTA  *****

CITY           SKY/WX    TMP DP  RH WIND       PRES   REMARKS
JAMESTOWN      CLOUDY    59  35  40 N5        29.65R
BISMARCK       PTCLDY    64  34  32 N9        29.68R
MINOT          CLEAR     57  35  43 NW13      29.71R
MINOT AFB      CLEAR     56  37  47 N10       29.71R
GARRISON         N/A     51  36  56 N10       29.70R
WILLISTON      MOCLDY    55  35  47 N15       29.80R
DICKINSON      PTCLDY    58  29  33 NW8       29.72R
HETTINGER      PTCLDY    47  32  56 W6        29.74R
$$

 *****  OTHER OBSERVATIONS NORTHEAST NORTH DAKOTA  *****

CITY           SKY/WX    TMP DP  RH WIND       PRES   REMARKS
WALHALLA       FAIR      55  37  50 NW8       29.65R
LANGDON        FAIR      55  37  50 NE10      29.66S
CAVALIER       FAIR      57  39  51 NW9       29.63R
GRAFTON        FAIR      61  48  63 W5        29.60F
CANDO          FAIR      54  36  50 N10       29.68R
FORT TOTTEN      N/A     62  38  41 N5        29.95
ROLLA          NOT AVBL
RUGBY          NOT AVBL
 ***** THE ABOVE OBSERVATIONS ARE NON NWS ARE NOT QUALITY
        CONTROLLED AND MAY MIS-REPORT RAIN FOR SNOW...
$$

 *****  OTHER OBSERVATIONS SOUTHEAST NORTH DAKOTA *****

CITY           SKY/WX    TMP DP  RH WIND       PRES   REMARKS
COOPERSTOWN    NOT AVBL
VALLEY CITY    FAIR      63  39  42 NW10      29.64R
OAKES            N/A     66  48  52 CALM      29.64S
GWINNER        PTCLDY    72  45  37 NW5       29.65S
BUFFALO        NOT AVBL
WYNDMERE         N/A     68  48  49 S12         N/A
 ***** THE ABOVE OBSERVATIONS ARE NON NWS ARE NOT QUALITY
       CONTROLLED AND MAY MIS-REPORT RAIN FOR SNOW...
$$

  *****  WEATHER ACROSS NORTHERN MINNESOTA  *****

CITY           SKY/WX    TMP DP  RH WIND       PRES   REMARKS
FLAG ISLAND    MOCLDY    57  48  72 NW7       29.62R
WARROAD        CLOUDY    63  46  55 NW10      29.62R
ROSEAU         MOCLDY    64  46  52 NW9       29.63R
HALLOCK        PTCLDY    59  39  47 W5        29.61R
THF RVR FALLS  PTCLDY    61  46  59 S8        29.61S
HALSTAD          N/A     63  43  47 S17         N/A
FOSSTON        NOT AVBL
BAUDETTE       MOCLDY    66  43  43 SW7       29.62R
WASKISH        MOCLDY    66  45  45 S5G17     29.61F
CROOKSTON      PTCLDY    61  46  59 S6        29.60R
$$
  *****  WEATHER ACROSS CENTRAL AND WEST MINNESOTA  *****

CITY           SKY/WX    TMP DP  RH WIND       PRES   REMARKS
BEMIDJI        MOCLDY    60  44  54 CALM      29.65S
PARK RAPIDS    MOCLDY    60  49  66 S10       29.68F
WADENA         MOCLDY    61  50  67 SE16      29.68F
DETROIT LAKES  PTCLDY    59  52  77 S13       29.66F
MOORHEAD       LGT RAIN  61  52  72 SE17      29.62R
FERGUS FALLS   MOCLDY    63  52  67 SE12      29.66S
ELBOW LAKE     RAIN      60  54  82 E20       29.66F
MORRIS MN      MOCLDY    63  52  67 E13       29.69S
STAPLES        RAIN      57  52  82 NE9G18    29.72F
WHEATON        CLOUDY    61  50  67 E14       29.68S
$$
  *****  WEATHER ELSEWHERE ACROSS MINNESOTA  *****

CITY           SKY/WX    TMP DP  RH WIND       PRES   REMARKS
DULUTH         MOCLDY    56  43  61 SE8       29.74F
INTRNTL FALLS  CLOUDY    69  34  27 S5        29.62F
ELY            MOCLDY    61  37  41 S6        29.71F
CLOQUET        MOCLDY    52  43  71 CALM      29.73F
BRAINERD       LGT RAIN  67  45  45 NW8       29.77R
HIBBING        CLOUDY    65  38  36 VRB6      29.69F
ALEXANDRIA     CLOUDY    61  52  72 E9        29.72F
SAINT CLOUD    PTCLDY    63  47  55 S8        29.72S
MINNEAPOLIS    PTCLDY    71  50  47 S12G21    29.77S
$$

  *****  WEATHER ACROSS SOUTH DAKOTA  *****

CITY           SKY/WX    TMP DP  RH WIND       PRES   REMARKS
SIOUX FALLS    PTCLDY    67  54  63 SE14      29.72S
BROOKINGS      CLEAR     66  52  59 S15G21    29.71F
WATERTOWN      CLEAR     67  48  50 S12       29.67F
HURON          MOCLDY    69  48  47 S15       29.64R
SISSETON         N/A     70  46  42 S9        29.66R
ABERDEEN       MOCLDY    64  51  62 SE5       29.63F
MITCHELL       PTCLDY    70  55  59 S16       29.67S
PIERRE         MOCLDY    65  42  43 N12       29.67R
MOBRIDGE       PTCLDY    60  30  32 N12       29.64S
RAPID CITY     CLEAR     54  30  40 N8        29.75R
$$

  *****  SOME WEATHER IN NEARBY STATES *****

CITY           SKY/WX    TMP DP  RH WIND       PRES   REMARKS
GLASGOW MT     PTCLDY    50  34  54 N14       29.87R
GREAT FALLS MT CLEAR     46  31  55 NE15      29.94R
CHEYENNE WY    CLOUDY    56  37  49 W20       29.95F
SCOTTSBLUFF NE CLOUDY    62  40  44 SW6       29.82S
OMAHA NE       CLOUDY    70  54  56 NW12      29.83R THUNDER
DES MOINES IA  PTCLDY    59  52  77 S12       29.87F
DAVENPORT IA   PTCLDY    62  47  57 S8        29.96S
CHICAGO IL     MOCLDY    65  38  36 S7        29.96S
EAU CLAIRE WI  CLEAR     68  48  48 S14       29.81R
LA CROSSE WI   CLEAR     67  50  54 S9        29.86R
$$

  *****  SOME NATIONAL WEATHER *****

CITY           SKY/WX    TMP DP  RH WIND       PRES   REMARKS
LA GUARDIA NY  MOCLDY    51  38  60 S7        30.05R
RALEIGH NC     FAIR      52  49  89 CALM      30.11S
ATLANTA GA     PTCLDY    63  49  60 CALM      30.11R
NEW ORLEANS LA PTCLDY    69  59  70 SE8       30.07S
OKLAHOMA CITY  PTCLDY    66  57  72 S9        29.94S
ALBUQUERQUE NM MOCLDY    66  34  30 NW9       30.07R
SALT LAKE CITY MOCLDY    66  43  43 W3        29.87R
LOS ANGELES CA CLEAR     61  52  72 S6        29.84R
BOISE ID       PTCLDY    67  28  23 N8        29.78R
SEATTLE WA     PTCLDY    56  36  47 N10       30.00S
$$

*** WEATHER ACROSS MANITOBA...SASKATCHEWAN AND ONTARIO ***
                ***ONTARIO***

CITY           SKY/WX    TMP DP  RH WIND       PRES   REMARKS
GERALDTON      MOCLDY    50  43  76 S6        29.75F
THUNDER BAY    MOCLDY    41  39  93 NE6       29.77F
SIOUX LOOKOUT  LGT RAIN  55  50  82 S6        29.65F
TORONTO        MOCLDY    61  39  44 SW5       29.99S
BIG TROUT LK   MOCLDY    54  43  66 W5        29.44R
PICKLE LAKE    NOT AVBL
DRYDEN         LGT RAIN  57  52  82 SW8       29.63F
KENORA         LGT RAIN  57  48  72 S9        29.61S
$$
                *** MANITOBA***

CITY           SKY/WX    TMP DP  RH WIND       PRES   REMARKS
BRANDON        PTCLDY    45  32  61 NW6       29.69R
DAUPHIN        MOCLDY    46  37  71 N10       29.68R
ISLAND LAKE    PTCLDY    43  37  81 NW6       29.56R
PILOT MOUND      N/A     57  34  41 N12         N/A
THE PAS        PTCLDY    39  36  87 SE6       29.64F
THOMPSON       MOCLDY    46  37  71 N8        29.60R
WINNIPEG       PTCLDY    54  39  58 NE17      29.66R
LYNN LAKE      MOCLDY    34  34 100 N7        29.70R
CHURCHILL      LGT SNOW  25  25 100 N23       29.72F WCI  10
GILLAM         LGT RAIN  34  34 100 N12       29.59R FOG
$$
                ***SASKATCHEWAN***

CITY           SKY/WX    TMP DP  RH WIND       PRES   REMARKS
ESTEVAN        PTCLDY    48  37  66 NW9       29.79R
KINDERSLEY     PTCLDY    37  27  65 NW7       29.89R
LLOYDMINSTER   PTCLDY    37  32  81 NW9       29.87R
PRINCE ALBERT  CLOUDY    43  39  87 E5        29.76R
REGINA         PTCLDY    39  34  81 NW6       29.81R
YORKTON        PTCLDY    48  39  71 W17       29.73R



USA.gov is the U.S. government's official web portal to all federal, state and local government web resources and services.